User: anonymous   Login
Location: Unspecified
(0.0000°N, 0.0000°E)
Time: 20:00:59
(UTC+00:00)
Language:

MUNIN - Orbit

View from above orbital plane
View from above orbital plane
View from above satellite
View from above satellite

Ground track
Ground track

The orbit data is extracted from the following two-line orbital elements,

1 26621U 00075C   17144.71688423 +.00000672 +00000-0 +61705-3 0  9992
2 26621 095.4044 213.6470 0713925 137.4128 228.4684 13.04140070785331
Epoch (UTC): 24 May 2017 17:12:18
Eccentricity: 0.0713925
inclination: 95.4044°
perigee height: 701 km
apogee height: 1790 km
right ascension of ascending node: 213.6470°
argument of perigee: 137.4128°
revolutions per day: 13.04140070
mean anomaly at epoch: 228.4684°
orbit number at epoch: 78533

The dashed part of the orbit path shows where the satellite is in the earth's shadow,  

DLR